TimeCDT,TemperatureF,Dew PointF,Humidity,Sea Level PressureIn,VisibilityMPH,Wind Direction,Wind SpeedMPH,Gust SpeedMPH,PrecipitationIn,Events,Conditions,WindDirDegrees,DateUTC
12:53 AM,32.0,30.0,92,30.26,10.0,Calm,Calm,-,N/A,,Clear,0,2013-03-20 05:53:00
1:53 AM,32.0,28.0,85,30.27,10.0,Calm,Calm,-,N/A,,Clear,0,2013-03-20 06:53:00
2:53 AM,28.0,26.1,92,30.29,9.0,West,3.5,-,N/A,,Clear,270,2013-03-20 07:53:00
3:53 AM,28.9,27.0,92,30.27,8.0,Calm,Calm,-,N/A,,Clear,0,2013-03-20 08:53:00
4:53 AM,30.9,28.0,89,30.28,8.0,Calm,Calm,-,N/A,,Clear,0,2013-03-20 09:53:00
5:24 AM,26.6,26.6,100,30.28,2.5,NNW,4.6,-,N/A,,Mostly Cloudy,340,2013-03-20 10:24:00
5:33 AM,28.4,26.6,93,30.28,6.0,NNW,4.6,-,N/A,,Mostly Cloudy,330,2013-03-20 10:33:00
5:53 AM,30.9,30.0,96,30.31,9.0,NNW,5.8,-,N/A,,Scattered Clouds,330,2013-03-20 10:53:00
6:53 AM,34.0,30.9,89,30.34,10.0,North,9.2,-,N/A,,Mostly Cloudy,360,2013-03-20 11:53:00
7:53 AM,33.1,28.0,82,30.38,10.0,North,11.5,23.0,N/A,,Overcast,360,2013-03-20 12:53:00
8:53 AM,33.1,16.0,50,30.40,10.0,North,11.5,17.3,N/A,,Mostly Cloudy,10,2013-03-20 13:53:00
9:53 AM,35.1,15.1,44,30.41,10.0,NNE,11.5,-,N/A,,Partly Cloudy,20,2013-03-20 14:53:00
10:53 AM,37.0,10.9,34,30.41,10.0,NNW,11.5,21.9,N/A,,Clear,340,2013-03-20 15:53:00
11:53 AM,39.0,14.0,36,30.40,10.0,NNW,10.4,-,N/A,,Partly Cloudy,340,2013-03-20 16:53:00
12:53 PM,42.1,15.1,34,30.38,10.0,WNW,13.8,19.6,N/A,,Clear,300,2013-03-20 17:53:00
1:53 PM,43.0,16.0,34,30.34,10.0,NNW,12.7,23.0,N/A,,Clear,340,2013-03-20 18:53:00
2:53 PM,44.1,14.0,30,30.31,10.0,NNW,17.3,23.0,N/A,,Clear,330,2013-03-20 19:53:00
3:53 PM,44.1,15.1,31,30.27,10.0,NNW,12.7,20.7,N/A,,Clear,340,2013-03-20 20:53:00
4:53 PM,44.1,15.1,31,30.25,10.0,NNW,11.5,20.7,N/A,,Clear,340,2013-03-20 21:53:00
5:53 PM,43.0,15.1,32,30.22,10.0,NNW,11.5,17.3,N/A,,Clear,330,2013-03-20 22:53:00
6:53 PM,39.9,15.1,36,30.20,10.0,NW,8.1,-,N/A,,Clear,320,2013-03-20 23:53:00
7:53 PM,36.0,16.0,44,30.19,10.0,Variable,3.5,-,N/A,,Clear,0,2013-03-21 00:53:00
8:53 PM,36.0,16.0,44,30.18,10.0,Calm,Calm,-,N/A,,Clear,0,2013-03-21 01:53:00
9:53 PM,33.1,17.1,52,30.18,10.0,ENE,4.6,-,N/A,,Clear,60,2013-03-21 02:53:00
10:53 PM,30.9,17.1,57,30.17,10.0,East,5.8,-,N/A,,Clear,80,2013-03-21 03:53:00
11:53 PM,30.9,16.0,54,30.14,10.0,ESE,4.6,-,N/A,,Clear,110,2013-03-21 04:53:00